Location: *
(37.5724°S, 58.0067°E)
Time: 11:18:45
(UTC+00:00)

USA 229 DEB - Pass Details

Date: 26 September 2020
Orbit: 971 x 1241 km, 63.4° (Epoch: 14 October)

Event Time Altitude Azimuth Distance (km) Brightness Sun altitude
Exits shadow 22:42:59 67° 82° (E) 1,300 4.1 -35.4°
Drops below altitude 10° 22:49:58 10° 143° (SE) 3,088 6.8 -34.3°
Sets 22:52:39 0° 145° (SE) 4,018 7.6 -33.9°
